Weather Roundup
Issued by NWS Springfield, MO

Home | Current Version | Previous Version | Text Only | Print | Product List | Glossary On
Versions: 1 2 3 4 5 6 7 8 9 10 11 12 13 14 15 16 17 18 19 20 21 22 23 24 25 26 27 28 29 30 31 32 33 34 35 36 37 38 39 40 41 42 43 44 45 46 47 48 49 50
000
NZUS99 KSGF 270359
HRRSGF

HOURLY WEATHER
NATIONAL WEATHER SERVICE SPRINGFIELD MO
1100 PM CDT SUN APR 26 2015

......SGF CWA......

CITY           SKY/WX    TMP DP  RH WIND       PRES   REMARKS
SPRINGFIELD    MOCLDY    52  43  71 E9        29.95R
JOPLIN         CLOUDY    51  45  79 NE8       29.93R
WEST PLAINS    PTCLDY    51  39  63 E7        29.97R
ROLLA          CLEAR     47  35  63 NE8       29.99R
OSAGE BEACH    CLEAR     48  36  61 NE7       29.99S

......SURROUNDING SGF CWA......

CITY           SKY/WX    TMP DP  RH WIND       PRES   REMARKS
CHANUTE        CLOUDY    52  46  80 NE6       29.95R
PARSONS        CLOUDY    52  47  83 VRB3      29.95R
COFFEYVILLE    CLOUDY    52  46  80 NE8       29.92S
EMPORIA        MOCLDY    50  42  74 NE9       29.97R
SILOAM SPRINGS CLOUDY    54  43  66 E9        29.89R
HARRISON AR    CLOUDY    50  47  89 SE3       29.93S
NEAR YELLVILLE CLOUDY    50  46  87 CALM      29.91S

......KANSAS AND MISSOURI......

CITY           SKY/WX    TMP DP  RH WIND       PRES   REMARKS
KANSAS CTY INT PTCLDY    50  39  66 E8        30.03R
DOWNTOWN KC    PTCLDY    51  38  60 NE7       30.02R
COLUMBIA       PTCLDY    49  38  65 NE10      30.03R
SEDALIA        CLEAR     51  36  56 NE8       30.02S
ST JOSEPH      PTCLDY    53  33  46 NE9       30.06R
ST LOUIS       PTCLDY    52  35  52 NE6       30.04R
SPIRIT OF STL  CLEAR     48  37  65 NE6       30.02R
KIRKSVILLE     CLEAR     47  35  63 NE5       30.07R
WICHITA        CLOUDY    53  45  74 N13       29.95R
TOPEKA         PTCLDY    53  39  59 NE8       30.01S
OLATHE         CLEAR     52  38  58 NE8       30.00R

......TENNESSEE......

CITY           SKY/WX    TMP DP  RH WIND       PRES   REMARKS
MEMPHIS        MOCLDY    56  48  74 NE8       29.90F
NASHVILLE      CLEAR     50  47  89 VRB6      29.91S

......ARKANSAS.......

CITY           SKY/WX    TMP DP  RH WIND       PRES   REMARKS
FAYETTEVILLE   CLOUDY    53  48  83 NE8       29.88R
FT SMITH       CLOUDY    61  51  70 E21       29.81R
LITTLE ROCK    CLOUDY    57  48  72 NE14      29.89S

......OKLAHOMA.......

CITY           SKY/WX    TMP DP  RH WIND       PRES   REMARKS
TULSA          CLOUDY    56  47  71 NE13      29.85R
PONCA CITY     LGT RAIN  53  47  79 NE16G26   29.88F
MCALESTER      CLOUDY    70  60  70 NE8       29.74R
OKLAHOMA CITY  LGT RAIN  58  55  90 NE22G30   29.82S

......IOWA............

CITY           SKY/WX    TMP DP  RH WIND       PRES   REMARKS
DES MOINES     CLEAR     53  25  33 SE5       30.09R
QUAD CITIES    CLEAR     42  36  79 CALM      30.05S

......ILLINOIS........

CITY           SKY/WX    TMP DP  RH WIND       PRES   REMARKS
QUINCY         CLEAR     46  36  68 NE6       30.06R
CHICAGO        CLEAR     43  27  53 N9G24     30.04R



USA.gov is the U.S. government's official web portal to all federal, state and local government web resources and services.